Weather History for Johnstown, PA

Change the Weather History Date:

Wednesday, July 10, 2013

  Actual Average Record
Temperature  
Mean Temperature 71 °F 69 °F  
Max Temperature 80 °F 79 °F 102 °F (1936)
Min Temperature 62 °F 60 °F 45 °F (1961)
Degree Days  
Heating Degree Days 0 0  
Month to date heating degree days 0 8  
Since 1 June heating degree days 63 87  
Since 1 July heating degree days 0 8  
Cooling Degree Days 6 5  
Month to date cooling degree days 66 45  
Year to date cooling degree days 175 138  
Since 1 June cooling degree days 135 120  
Growing Degree Days 20 (Base 50)    
Moisture  
Dew Point 64 °F    
Average Humidity 86    
Maximum Humidity 100    
Minimum Humidity 71    
Precipitation  
Precipitation 1.05 in 0.11 in 1.51 in (1931)
Month to date precipitation 1.93 1.16  
Year to date precipitation 10.17 17.80  
Sea Level Pressure  
Sea Level Pressure 30.01 in    
Wind  
Wind Speed 9 mph (WSW)    
Max Wind Speed 32 mph    
Max Gust Speed 43 mph    
Visibility 6 miles    
Events Fog , Rain    
T = Trace of Precipitation, MM = Missing Value Source: NWS Daily Summary

Daily Weather History Graph

Daily Weather History Graph

Search for Another Location

Airport:

Trip Planner

Search our weather history database for the weather conditions in past years. The results will help you decide how hot, cold, wet, or windy it might be!

Date:

Astronomy

Jul. 10, 2013 Rise Set
Actual Time 5:54 AM EDT 8:46 PM EDT
Civil Twilight 5:22 AM EDT 9:18 PM EDT
Nautical Twilight 4:41 AM EDT 9:59 PM EDT
Astronomical Twilight 3:54 AM EDT 10:46 PM EDT
Moon 8:14 AM EDT (7/10) 9:54 PM EDT (7/10)
Length of Visible Light 15h 56m
Length of Day
14h 51m
Waxing Crescent, 5% of the Moon is Illuminated
Jul 10
Waxing Crescent
Jul 15
First Quarter
Jul 22
Full
Jul 29
Last Quarter
Aug 6
New

Hourly Weather History & Observations

Time (EDT) Temp. Dew Point Humidity Pressure Visibility Wind Dir Wind Speed Gust Speed Precip Events Conditions
12:02 AM 69.8 °F 64.4 °F 83% 30.09 in 9.0 mi SW 5.8 mph - N/A   Mostly Cloudy
12:21 AM 69.8 °F 66.2 °F 88% 30.08 in 9.0 mi SW 6.9 mph - N/A   Overcast
12:54 AM 68.0 °F 64.9 °F 90% 30.03 in 9.0 mi WSW 12.7 mph 19.6 mph N/A   Mostly Cloudy
1:02 AM 68.0 °F 64.4 °F 88% 30.07 in 10.0 mi WSW 12.7 mph - N/A   Mostly Cloudy
1:13 AM 68.0 °F 64.4 °F 88% 30.08 in 10.0 mi WSW 15.0 mph 21.9 mph N/A   Mostly Cloudy
1:37 AM 68.0 °F 64.4 °F 88% 30.08 in 10.0 mi SW 10.4 mph 18.4 mph N/A   Overcast
1:54 AM 68.0 °F 64.9 °F 90% 30.03 in 10.0 mi WSW 16.1 mph 20.7 mph N/A   Overcast
2:06 AM 68.0 °F 64.4 °F 88% 30.07 in 10.0 mi WSW 12.7 mph - N/A   Overcast
2:54 AM 68.0 °F 64.0 °F 87% 30.02 in 10.0 mi SW 6.9 mph - N/A   Mostly Cloudy
3:41 AM 66.2 °F 64.4 °F 94% 30.04 in 9.0 mi SW 5.8 mph - 0.00 in   Overcast
3:54 AM 66.9 °F 64.0 °F 90% 30.00 in 9.0 mi SW 8.1 mph - 0.00 in   Mostly Cloudy
4:54 AM 66.9 °F 64.0 °F 90% 30.00 in 10.0 mi SSW 8.1 mph - N/A   Clear
5:54 AM 66.0 °F 64.0 °F 93% 30.00 in 6.0 mi SSW 5.8 mph - 0.01 in Rain Light Rain
6:54 AM 66.9 °F 64.0 °F 90% 30.01 in 5.0 mi West 8.1 mph - 0.01 in Rain Light Rain
6:57 AM 66.2 °F 64.4 °F 94% 30.05 in 1.8 mi West 9.2 mph - 0.04 in Rain Light Rain
7:13 AM 66.2 °F 64.4 °F 94% 30.05 in 1.5 mi West 11.5 mph - 0.10 in Rain Rain
7:16 AM 66.2 °F 64.4 °F 94% 30.05 in 1.5 mi West 10.4 mph - 0.11 in Rain Rain
7:27 AM 66.2 °F 64.4 °F 94% 30.05 in 1.2 mi WSW 11.5 mph - 0.18 in Rain Heavy Rain
7:36 AM 66.2 °F 64.4 °F 94% 30.05 in 2.0 mi WSW 10.4 mph - 0.19 in Rain Light Rain
7:54 AM 66.0 °F 64.9 °F 96% 30.00 in 2.5 mi WSW 6.9 mph - 0.23 in Rain Rain
8:03 AM 66.2 °F 64.4 °F 94% 30.04 in 1.8 mi SW 13.8 mph - 0.04 in Rain Heavy Rain
8:10 AM 66.2 °F 64.4 °F 94% 30.05 in 1.5 mi WSW 15.0 mph 28.8 mph 0.08 in Rain Heavy Rain
8:25 AM 66.2 °F 64.4 °F 94% 30.05 in 1.0 mi WSW 9.2 mph - 0.15 in Rain Heavy Rain
8:51 AM 66.2 °F 64.4 °F 94% 30.07 in 2.0 mi WSW 9.2 mph - 0.20 in Rain Light Rain
8:54 AM 66.9 °F 64.9 °F 93% 30.03 in 1.5 mi WSW 8.1 mph - 0.21 in Rain Light Rain
9:16 AM 66.2 °F 66.2 °F 100% 30.07 in 2.0 mi West 8.1 mph - 0.03 in Rain Light Rain
9:32 AM 66.2 °F 66.2 °F 100% 30.07 in 1.0 mi West 6.9 mph - 0.05 in Rain Light Rain
9:54 AM 66.9 °F 64.9 °F 93% 30.03 in 1.2 mi West 9.2 mph - 0.13 in Rain Heavy Rain
10:01 AM 66.2 °F 64.4 °F 94% 30.06 in 2.0 mi West 8.1 mph - 0.03 in Rain Rain
10:22 AM 66.2 °F 64.4 °F 94% 30.06 in 1.5 mi WSW 8.1 mph - 0.10 in Rain Heavy Rain
10:37 AM 66.2 °F 64.4 °F 94% 30.06 in 2.0 mi SSW 5.8 mph - 0.16 in Rain Rain
10:44 AM 66.2 °F 64.4 °F 94% 30.06 in 1.2 mi WSW 15.0 mph 20.7 mph 0.20 in Rain Heavy Rain
10:54 AM 66.0 °F 64.0 °F 93% 30.01 in 2.5 mi SW 15.0 mph - 0.23 in Rain Rain
11:01 AM 66.2 °F 62.6 °F 88% 30.03 in 7.0 mi SSW 9.2 mph - 0.00 in Rain Light Rain
11:54 AM 66.0 °F 62.1 °F 87% 30.00 in 10.0 mi SW 12.7 mph - 0.02 in   Mostly Cloudy
12:54 PM 66.0 °F 63.0 °F 90% 29.99 in 10.0 mi SW 8.1 mph - 0.00 in   Partly Cloudy
1:42 PM 71.6 °F 64.4 °F 78% 30.00 in 10.0 mi SSW 5.8 mph - N/A   Mostly Cloudy
1:54 PM 71.1 °F 63.0 °F 75% 29.96 in 10.0 mi SW 6.9 mph - N/A   Mostly Cloudy
2:54 PM 75.9 °F 66.9 °F 74% 29.94 in 10.0 mi SW 8.1 mph - 0.01 in   Overcast
3:12 PM 78.8 °F 68.0 °F 69% 29.96 in 10.0 mi SSW 9.2 mph - N/A   Scattered Clouds
3:54 PM 79.0 °F 69.1 °F 72% 29.89 in 10.0 mi SW 8.1 mph - N/A   Mostly Cloudy
4:54 PM 79.0 °F 68.0 °F 69% 29.89 in 10.0 mi SW 12.7 mph 18.4 mph N/A   Scattered Clouds
5:54 PM 78.1 °F 68.0 °F 71% 29.90 in 10.0 mi WSW 10.4 mph - N/A   Scattered Clouds
6:54 PM 75.9 °F 66.9 °F 74% 29.90 in 10.0 mi SW 8.1 mph - N/A   Partly Cloudy
7:50 PM 66.2 °F 60.8 °F 83% 29.99 in 10.0 mi NNW 21.9 mph 42.6 mph 0.00 in Rain Light Rain
7:54 PM 66.0 °F 61.0 °F 84% 29.97 in 10.0 mi NW 18.4 mph 38.0 mph 0.00 in Rain Light Rain
8:02 PM 64.4 °F 62.6 °F 94% 30.00 in 3.0 mi NNW 17.3 mph 24.2 mph 0.09 in Rain Heavy Rain
8:06 PM 64.4 °F 62.6 °F 94% 30.00 in 1.8 mi NNW 15.0 mph 24.2 mph 0.14 in Rain Heavy Rain
8:12 PM 64.4 °F 62.6 °F 94% 30.00 in 2.0 mi North 12.7 mph 21.9 mph 0.15 in Rain Light Rain
8:19 PM 64.4 °F 62.6 °F 94% 30.00 in 8.0 mi NNW 8.1 mph - 0.15 in Rain Light Rain
8:39 PM 64.4 °F 62.6 °F 94% 30.01 in 10.0 mi North 4.6 mph - 0.16 in Rain Light Rain
8:54 PM 64.0 °F 62.1 °F 93% 29.96 in 10.0 mi NNW 4.6 mph - 0.16 in Rain Light Rain
9:54 PM 63.0 °F 62.1 °F 97% 29.95 in 10.0 mi West 5.8 mph - 0.01 in Rain Light Rain
10:54 PM 63.0 °F 62.1 °F 97% 29.93 in 6.0 mi Calm Calm - 0.03 in Rain Light Rain
11:16 PM 62.6 °F 62.6 °F 100% 29.94 in 1.5 mi West 6.9 mph - 0.00 in   Mostly Cloudy
11:23 PM 62.6 °F 62.6 °F 100% 29.95 in 0.2 mi WSW 8.1 mph - 0.00 in Fog Fog
11:30 PM 62.6 °F 62.6 °F 100% 29.94 in 0.2 mi SW 5.8 mph - 0.00 in Fog Fog
11:54 PM 62.1 °F 62.1 °F 100% 29.91 in 0.2 mi SSW 4.6 mph - 0.00 in Fog Fog